Terrell, TX

6:43 AM CDT on September 23, 2017 (GMT -0500)
Terrell Municipal

Weather History for KTRL - May, 2013

Change the Weather History Date:

Monday, May 27, 2013

  Actual Average (KGVT) Record (KGVT)
Temperature  
Mean Temperature 80 °F -  
Max Temperature 89 °F 83 °F 91 °F (2006)
Min Temperature 71 °F 67 °F 60 °F (2003)
Cooling Degree Days 14    
Growing Degree Days 30 (Base 50)    
Moisture  
Dew Point 68 °F    
Average Humidity 73    
Maximum Humidity 94    
Minimum Humidity 46    
Precipitation  
Precipitation 0.02 in - - ()
Sea Level Pressure  
Sea Level Pressure 29.94 in    
Wind  
Wind Speed 12 mph (South)    
Max Wind Speed 22 mph    
Max Gust Speed 29 mph    
Visibility 10 miles    
Events      
Averages and records for this station are not official NWS values.
T = Trace of Precipitation, MM = Missing Value Source: NWS Daily Summary

Daily Weather History Graph

Daily Weather History Graph

Search for Another Location

Airport or City:

Trip Planner

Search our weather history database for the weather conditions in past years. The results will help you decide how hot, cold, wet, or windy it might be!

Date:

Astronomy

May. 27, 2013 Rise Set
Actual Time 6:19 AM CDT 8:25 PM CDT
Civil Twilight 5:51 AM CDT 8:53 PM CDT
Nautical Twilight 5:17 AM CDT 9:27 PM CDT
Astronomical Twilight 4:41 AM CDT 10:03 PM CDT
Moon 11:09 PM CDT (5/27) 8:56 AM CDT (5/27)
Length of Visible Light 15h 01m
Length of Day
14h 05m
Waning Gibbous, 91% of the Moon is Illuminated
May 27
Waning Gibbous
May 31
Last Quarter
Jun 8
New
Jun 16
First Quarter
Jun 23
Full

Hourly Weather History & Observations

Time (CDT) Temp. Heat Index Dew Point Humidity Pressure Visibility Wind Dir Wind Speed Gust Speed Precip Events Conditions
12:53 AM 75.9 °F - 69.1 °F 79% 29.99 in 10.0 mi South 10.4 mph - N/A   Clear
1:53 AM 73.9 °F - 69.1 °F 85% 29.98 in 10.0 mi South 11.5 mph - N/A   Clear
2:53 AM 73.9 °F - 69.1 °F 85% 29.97 in 10.0 mi South 9.2 mph - N/A   Clear
3:53 AM 73.0 °F - 69.1 °F 87% 29.96 in 10.0 mi South 10.4 mph - N/A   Clear
4:53 AM 72.0 °F - 69.1 °F 91% 29.94 in 10.0 mi South 10.4 mph - N/A   Clear
5:53 AM 72.0 °F - 70.0 °F 93% 29.95 in 10.0 mi South 9.2 mph - 0.01 in   Scattered Clouds
6:26 AM 71.6 °F - 69.8 °F 94% 29.98 in 9.0 mi South 8.1 mph - N/A   Mostly Cloudy
6:36 AM 71.6 °F - 69.8 °F 94% 29.98 in 9.0 mi South 10.4 mph - N/A   Overcast
6:53 AM 73.0 °F - 70.0 °F 90% 29.97 in 9.0 mi South 11.5 mph - N/A   Overcast
7:15 AM 71.6 °F - 69.8 °F 94% 29.99 in 9.0 mi South 8.1 mph - N/A   Scattered Clouds
7:24 AM 73.4 °F - 69.8 °F 88% 29.99 in 9.0 mi South 10.4 mph - N/A   Mostly Cloudy
7:53 AM 73.0 °F - 70.0 °F 90% 29.98 in 9.0 mi South 10.4 mph - N/A   Overcast
8:08 AM 73.4 °F - 69.8 °F 88% 30.00 in 9.0 mi South 11.5 mph - N/A   Overcast
8:43 AM 75.2 °F - 69.8 °F 83% 30.00 in 10.0 mi South 16.1 mph 23.0 mph N/A   Overcast
8:53 AM 75.0 °F - 70.0 °F 84% 29.98 in 10.0 mi South 13.8 mph - N/A   Overcast
9:53 AM 77.0 °F - 69.1 °F 76% 29.98 in 10.0 mi SSW 11.5 mph 20.7 mph N/A   Mostly Cloudy
10:22 AM 80.6 °F 82.7 °F 66.2 °F 61% 29.99 in 10.0 mi South 18.4 mph 25.3 mph N/A   Mostly Cloudy
10:53 AM 82.0 °F 84.5 °F 66.9 °F 60% 29.97 in 10.0 mi South 20.7 mph 26.5 mph N/A   Clear
11:53 AM 84.0 °F 86.5 °F 66.9 °F 56% 29.97 in 10.0 mi South 16.1 mph 23.0 mph N/A   Partly Cloudy
12:53 PM 84.0 °F 86.5 °F 66.9 °F 56% 29.95 in 10.0 mi South 15.0 mph 28.8 mph N/A   Mostly Cloudy
1:53 PM 86.0 °F 88.2 °F 66.0 °F 51% 29.94 in 10.0 mi South 21.9 mph 26.5 mph N/A   Mostly Cloudy
2:53 PM 86.0 °F 87.6 °F 64.9 °F 49% 29.92 in 10.0 mi South 20.7 mph - N/A   Mostly Cloudy
3:53 PM 87.1 °F 88.9 °F 64.9 °F 48% 29.89 in 10.0 mi South 16.1 mph 24.2 mph N/A   Mostly Cloudy
4:53 PM 88.0 °F 90.3 °F 66.0 °F 48% 29.87 in 10.0 mi South 16.1 mph 24.2 mph N/A   Mostly Cloudy
5:53 PM 88.0 °F 89.6 °F 64.9 °F 46% 29.84 in 10.0 mi South 17.3 mph - N/A   Scattered Clouds
6:53 PM 86.0 °F 88.2 °F 66.0 °F 51% 29.82 in 10.0 mi SSE 12.7 mph - N/A   Clear
7:53 PM 82.0 °F 84.1 °F 66.0 °F 58% 29.82 in 10.0 mi SSE 10.4 mph - N/A   Clear
8:53 PM 80.1 °F 82.3 °F 66.9 °F 64% 29.83 in 10.0 mi SSE 8.1 mph - N/A   Clear
9:53 PM 80.1 °F 82.3 °F 66.9 °F 64% 29.83 in 10.0 mi SSE 11.5 mph - 0.01 in   Clear
10:53 PM 79.0 °F - 69.1 °F 72% 29.86 in 10.0 mi SSE 13.8 mph - N/A   Clear
11:53 PM 79.0 °F - 70.0 °F 74% 29.86 in 10.0 mi SSE 12.7 mph - N/A   Clear